ASA65 PAPG-PAJN

Flight info

Callsign ASA65
Flight time 0h 44m
Altitude 20000
Route SSR
Aircraft B737/M-SDE2E3FGHIRWXY/LB1

Departure

Time 2026-05-03 20:31
Airport Petersburg James A Johnson Airport (PAPG)

Arrival

Time 2026-05-03 21:15
Airport Juneau International Airport (PAJN)
Time Latitude Longitude Altitude Speed Heading
2026-05-03 20:29 56.80604 -132.93744 75 ft 3 kts 223°
2026-05-03 20:30 56.80578 -132.93773 75 ft 5 kts 197°
2026-05-03 20:30 56.80514 -132.93758 75 ft 14 kts 174°
2026-05-03 20:30 56.80407 -132.93782 77 ft 14 kts 190°
2026-05-03 20:30 56.80338 -132.93930 75 ft 33 kts 251°
2026-05-03 20:31 56.80123 -132.95007 76 ft 141 kts 250°
2026-05-03 20:31 56.79538 -132.96852 596 ft 191 kts 202°
2026-05-03 20:31 56.78728 -132.95560 1184 ft 215 kts 59°
2026-05-03 20:31 56.80233 -132.93881 259 ft 320 kts 29°
2026-05-03 20:32 56.80880 -132.90166 1056 ft 335 kts 66°
2026-05-03 20:32 56.82964 -132.88634 1491 ft 348 kts 308°
2026-05-03 20:32 56.81426 -132.91332 784 ft 395 kts 215°
2026-05-03 20:32 56.81114 -132.95532 849 ft 402 kts 269°
2026-05-03 20:33 56.80163 -132.94223 174 ft 394 kts 78°
2026-05-03 20:33 56.80698 -132.89670 3082 ft 364 kts 76°
2026-05-03 20:33 56.81282 -132.85561 5570 ft 340 kts 66°
2026-05-03 20:33 56.82737 -132.83847 4688 ft 370 kts 276°
2026-05-03 20:34 56.81222 -132.88165 1248 ft 488 kts 246°
2026-05-03 20:34 56.80213 -132.94431 149 ft 538 kts 253°
2026-05-03 20:34 56.78997 -132.94330 1329 ft 434 kts 25°
2026-05-03 20:34 56.80478 -132.92142 354 ft 417 kts 113°
2026-05-03 20:35 56.81373 -132.92036 1371 ft 346 kts 221°
2026-05-03 20:35 56.80610 -132.90010 1042 ft 279 kts 58°
2026-05-03 20:35 56.81656 -132.87471 1088 ft 225 kts 355°
2026-05-03 20:35 56.82104 -132.89311 614 ft 197 kts 218°
2026-05-03 20:36 56.80992 -132.90626 360 ft 179 kts 224°
2026-05-03 20:36 56.80557 -132.92574 186 ft 162 kts 250°
2026-05-03 20:36 56.80184 -132.94473 79 ft 153 kts 250°
2026-05-03 20:36 56.79813 -132.96301 282 ft 172 kts 241°
2026-05-03 20:37 56.78916 -132.96790 837 ft 199 kts 137°
2026-05-03 20:37 56.80611 -132.93072 79 ft 0 kts 250°
2026-05-03 20:43 56.80596 -132.93150 80 ft 14 kts 250°
2026-05-03 20:43 56.80559 -132.93337 80 ft 14 kts 250°
2026-05-03 20:44 56.80502 -132.93411 80 ft 12 kts 163°
2026-05-03 20:44 56.80415 -132.93524 80 ft 25 kts 246°
2026-05-03 20:44 56.80331 -132.93959 75 ft 46 kts 251°
2026-05-03 20:44 56.80217 -132.94586 73 ft 57 kts 251°
2026-05-03 20:45 56.80086 -132.95253 79 ft 54 kts 249°
2026-05-03 20:45 56.79963 -132.95862 93 ft 49 kts 251°
2026-05-03 20:45 56.79875 -132.96199 103 ft 15 kts 174°
2026-05-03 20:45 56.79890 -132.95978 98 ft 38 kts 70°
2026-05-03 20:46 56.80067 -132.95055 79 ft 113 kts 71°
2026-05-03 20:46 56.80387 -132.93370 213 ft 157 kts 71°
2026-05-03 20:46 56.80694 -132.91425 857 ft 160 kts 75°
2026-05-03 20:46 56.81015 -132.89416 1266 ft 177 kts 62°
2026-05-03 20:47 56.81967 -132.87885 1683 ft 192 kts 18°
2026-05-03 20:47 56.83347 -132.87791 2178 ft 208 kts 346°
2026-05-03 20:47 56.84641 -132.89008 2714 ft 222 kts 320°
2026-05-03 20:47 56.85815 -132.91074 3394 ft 245 kts 315°
2026-05-03 20:48 56.87029 -132.93295 4804 ft 255 kts 316°
2026-05-03 20:48 56.88279 -132.95473 6350 ft 259 kts 317°
2026-05-03 20:48 56.89572 -132.97661 7914 ft 259 kts 317°
2026-05-03 20:48 56.90859 -132.99823 9398 ft 258 kts 316°
2026-05-03 20:49 56.92141 -133.01981 10803 ft 257 kts 315°
2026-05-03 20:49 56.93488 -133.04260 11731 ft 273 kts 314°
2026-05-03 20:49 56.94907 -133.06663 12528 ft 291 kts 314°
2026-05-03 20:49 56.96429 -133.09248 13338 ft 308 kts 314°
2026-05-03 20:50 56.98024 -133.11964 14060 ft 325 kts 314°
2026-05-03 20:50 56.99720 -133.14854 15063 ft 333 kts 314°
2026-05-03 20:50 57.01409 -133.17731 16105 ft 337 kts 314°
2026-05-03 20:50 57.03132 -133.20670 17123 ft 341 kts 314°
2026-05-03 20:51 57.04889 -133.23673 18089 ft 344 kts 314°
2026-05-03 20:51 57.06622 -133.26639 18950 ft 350 kts 314°
2026-05-03 20:51 57.08445 -133.29767 19757 ft 357 kts 314°
2026-05-03 20:51 57.10286 -133.32935 20169 ft 373 kts 314°
2026-05-03 20:52 57.12226 -133.36285 20257 ft 398 kts 314°
2026-05-03 20:52 57.14323 -133.39911 20263 ft 423 kts 314°
2026-05-03 20:52 57.16483 -133.43645 20257 ft 428 kts 315°
2026-05-03 20:52 57.18622 -133.47330 20262 ft 409 kts 314°
2026-05-03 20:53 57.20689 -133.50896 20268 ft 410 kts 314°
2026-05-03 20:53 57.22795 -133.54540 20270 ft 408 kts 314°
2026-05-03 20:53 57.24862 -133.58124 20271 ft 409 kts 314°
2026-05-03 20:53 57.26936 -133.61729 20273 ft 408 kts 314°
2026-05-03 20:54 57.29014 -133.65352 20286 ft 410 kts 313°
2026-05-03 20:54 57.33134 -133.72554 20300 ft 410 kts 313°
2026-05-03 20:54 57.35196 -133.76167 20297 ft 411 kts 313°
2026-05-03 20:55 57.37238 -133.79750 20303 ft 408 kts 314°
2026-05-03 20:55 57.39307 -133.83385 20301 ft 411 kts 314°
2026-05-03 20:55 57.41371 -133.87018 20301 ft 408 kts 314°
2026-05-03 20:55 57.43413 -133.90620 20304 ft 408 kts 314°
2026-05-03 20:56 57.45494 -133.94295 20304 ft 411 kts 314°
2026-05-03 20:56 57.47572 -133.97971 20299 ft 407 kts 314°
2026-05-03 20:56 57.49604 -134.01573 20301 ft 408 kts 313°
2026-05-03 20:56 57.51660 -134.05225 20299 ft 409 kts 313°
2026-05-03 20:57 57.53746 -134.08934 20300 ft 411 kts 313°
2026-05-03 20:57 57.55803 -134.12599 20296 ft 409 kts 313°
2026-05-03 20:57 57.57863 -134.16277 20298 ft 411 kts 313°
2026-05-03 20:57 57.59903 -134.19922 20294 ft 409 kts 313°
2026-05-03 20:58 57.61986 -134.23650 20289 ft 410 kts 313°
2026-05-03 20:58 57.64061 -134.27370 20284 ft 408 kts 313°
2026-05-03 20:58 57.66087 -134.31006 20290 ft 408 kts 313°
2026-05-03 20:58 57.68115 -134.34650 20281 ft 408 kts 313°
2026-05-03 20:59 57.70170 -134.38356 20289 ft 409 kts 313°
2026-05-03 20:59 57.72219 -134.42053 20288 ft 408 kts 313°
2026-05-03 20:59 57.74255 -134.45735 20081 ft 409 kts 313°
2026-05-03 20:59 57.76279 -134.49394 19673 ft 399 kts 313°
2026-05-03 21:00 57.78282 -134.53021 19275 ft 397 kts 313°
2026-05-03 21:00 57.79597 -134.55409 18909 ft 398 kts 313°
2026-05-03 21:00 57.82268 -134.60272 17438 ft 404 kts 313°
2026-05-03 21:00 57.84223 -134.63835 16886 ft 385 kts 313°
2026-05-03 21:01 57.86102 -134.67256 15905 ft 376 kts 311°
2026-05-03 21:01 57.87956 -134.70656 14743 ft 371 kts 311°
2026-05-03 21:01 57.89792 -134.74034 13642 ft 364 kts 311°
2026-05-03 21:01 57.91584 -134.77336 12623 ft 361 kts 311°
2026-05-03 21:02 57.93344 -134.80589 12055 ft 350 kts 311°
2026-05-03 21:02 57.95044 -134.83713 11711 ft 336 kts 312°
2026-05-03 21:02 57.96697 -134.86758 11352 ft 323 kts 311°
2026-05-03 21:02 57.98267 -134.89658 11151 ft 307 kts 311°
2026-05-03 21:03 57.99761 -134.92423 10920 ft 294 kts 311°
2026-05-03 21:03 58.01179 -134.95053 10717 ft 283 kts 311°
2026-05-03 21:03 58.02544 -134.97591 10544 ft 271 kts 311°
2026-05-03 21:03 58.03901 -134.99991 10318 ft 262 kts 317°
2026-05-03 21:04 58.05553 -135.01445 9778 ft 272 kts 341°
2026-05-03 21:04 58.07449 -135.01891 9151 ft 277 kts 350°
2026-05-03 21:04 58.09353 -135.02109 8587 ft 275 kts 349°
2026-05-03 21:04 58.11254 -135.02414 8031 ft 272 kts 348°
2026-05-03 21:05 58.13117 -135.02820 7477 ft 270 kts 347°
2026-05-03 21:05 58.14981 -135.03284 7034 ft 268 kts 347°
2026-05-03 21:05 58.16799 -135.03732 6782 ft 261 kts 347°
2026-05-03 21:05 58.18563 -135.04166 6652 ft 249 kts 347°
2026-05-03 21:06 58.20245 -135.04584 6576 ft 235 kts 346°
2026-05-03 21:06 58.21845 -135.04979 6431 ft 225 kts 348°
2026-05-03 21:06 58.23397 -135.04977 6061 ft 232 kts
2026-05-03 21:06 58.24953 -135.04059 5671 ft 236 kts 17°
2026-05-03 21:07 58.26442 -135.02920 5580 ft 221 kts 17°
2026-05-03 21:07 58.27856 -135.01927 5462 ft 208 kts 14°
2026-05-03 21:07 58.29163 -135.01096 5410 ft 194 kts 13°
2026-05-03 21:07 58.30410 -135.00326 5267 ft 186 kts 14°
2026-05-03 21:08 58.31647 -134.99577 4950 ft 187 kts 15°
2026-05-03 21:08 58.32890 -134.98793 4646 ft 187 kts 16°
2026-05-03 21:08 58.34084 -134.98027 4574 ft 175 kts 15°
2026-05-03 21:08 58.35180 -134.97313 4506 ft 159 kts 15°
2026-05-03 21:09 58.36208 -134.96651 4355 ft 151 kts 15°
2026-05-03 21:09 58.37188 -134.96054 4149 ft 147 kts 14°
2026-05-03 21:09 58.38158 -134.95459 3908 ft 146 kts 17°
2026-05-03 21:09 58.39114 -134.94810 3643 ft 147 kts 21°
2026-05-03 21:10 58.39922 -134.93633 3363 ft 146 kts 62°
2026-05-03 21:10 58.40123 -134.91818 3133 ft 139 kts 95°
2026-05-03 21:10 58.39968 -134.90041 2876 ft 137 kts 109°
2026-05-03 21:10 58.39703 -134.88301 2631 ft 136 kts 108°
2026-05-03 21:11 58.39472 -134.86572 2405 ft 134 kts 106°
2026-05-03 21:11 58.39245 -134.84871 2158 ft 130 kts 105°
2026-05-03 21:11 58.39014 -134.83211 1829 ft 130 kts 105°
2026-05-03 21:11 58.38785 -134.81547 1511 ft 129 kts 105°
2026-05-03 21:12 58.38566 -134.79932 1399 ft 125 kts 105°
2026-05-03 21:12 58.38340 -134.78302 1402 ft 127 kts 105°
2026-05-03 21:12 58.38113 -134.76666 1403 ft 129 kts 105°
2026-05-03 21:12 58.37886 -134.75011 1400 ft 129 kts 105°
2026-05-03 21:13 58.37657 -134.73351 1396 ft 130 kts 105°
2026-05-03 21:13 58.37423 -134.71666 1395 ft 129 kts 105°
2026-05-03 21:13 58.37197 -134.70010 1396 ft 131 kts 105°
2026-05-03 21:13 58.36968 -134.68372 1393 ft 128 kts 105°
2026-05-03 21:14 58.36736 -134.66692 1393 ft 130 kts 105°
2026-05-03 21:14 58.36503 -134.65010 1332 ft 133 kts 103°
2026-05-03 21:14 58.36270 -134.63269 1030 ft 137 kts 104°
2026-05-03 21:14 58.36014 -134.61386 273 ft 159 kts 104°
2026-05-03 21:15 58.35750 -134.59450 15 ft 144 kts 104°
2026-05-03 21:15 58.35531 -134.57883 -7 ft 90 kts 104°
2026-05-03 21:15 58.35405 -134.57019 -10 ft 55 kts 103°
2026-05-03 21:15 58.35403 -134.56688 -12 ft 15 kts 23°
2026-05-03 21:16 58.35482 -134.56734 -12 ft 13 kts 291°
2026-05-03 21:16 58.35513 -134.56947 -11 ft 18 kts 284°
2026-05-03 21:16 58.35544 -134.57172 -8 ft 16 kts 284°
2026-05-03 21:16 58.35574 -134.57388 -7 ft 18 kts 284°
2026-05-03 21:17 58.35610 -134.57651 -5 ft 22 kts 284°
2026-05-03 21:17 58.35637 -134.57840 -5 ft 22 kts 284°
2026-05-03 21:17 58.35688 -134.58206 -4 ft 16 kts 284°
2026-05-03 21:17 58.35736 -134.58298 -5 ft 7 kts 357°
2026-05-03 21:18 58.35773 -134.58353 -6 ft 7 kts 288°
2026-05-03 21:18 58.35797 -134.58391 -6 ft 4 kts 22°
2026-05-03 21:18 58.35819 -134.58374 -5 ft 2 kts 20°
2026-05-03 21:18 58.35832 -134.58365 -5 ft 0 kts 19°